DW0835 Weather Reports


Display with metric or nautical units.
time (UTC)temp
F
wind
direction
speed
MPH
gust
MPH
rain 1hr
in
rain 24hr
in
rain mn
in
humidity
%
barometer
mb
20220930223030 60 0.0 2.0 0.00 0.00 0.00 73 1022.4
20220930222030 60 0.0 0.0 0.00 0.00 0.00 73 1022.4
20220930221030 60 0.0 1.0 0.00 0.00 0.00 73 1022.4
20220930215030 60 0.0 3.0 0.00 0.00 0.00 73 1022.4
20220930214050 60 0.0 2.0 0.00 0.00 0.00 72 1022.8
20220930213029 60 0.0 0.0 0.00 0.00 0.00 71 1022.8
20220930212029 60 0.0 0.0 0.00 0.00 0.00 70 1022.9
20220930211019 61 0.0 2.0 0.00 0.00 0.00 71 1023.0
20220930205029 61 0.0 0.0 0.00 0.00 0.00 72 1023.3
20220930204038 61 0.0 5.0 0.00 0.00 0.00 71 1023.2
20220930203018 61 0.0 3.0 0.00 0.00 0.00 72 1023.2
20220930202038 61 0.0 0.0 0.00 0.00 0.00 72 1023.3
20220930201029 61 0.0 5.0 0.00 0.00 0.00 71 1023.4
20220930200049 61 0.0 5.0 0.00 0.00 0.00 71 1023.4
20220930195029 61 0.0 2.0 0.00 0.00 0.00 70 1023.7
20220930194049 61 113 1.0 5.0 0.00 0.00 0.00 71 1023.9
20220930193029 61 0.0 5.0 0.00 0.00 0.00 70 1023.9
20220930192049 61 90 1.0 6.0 0.00 0.00 0.00 70 1024.1
20220930191049 61 0.0 4.0 0.00 0.00 0.00 70 1024.6
20220930190029 61 113 1.0 6.0 0.00 0.00 0.00 69 1024.6
20220930185108 61 0.0 3.0 0.00 0.00 0.00 71 1025.0
20220930184029 61 0.0 5.0 0.00 0.00 0.00 71 1025.1
20220930183018 61 90 1.0 6.0 0.00 0.00 0.00 69 1025.1
20220930182017 61 113 1.0 4.0 0.00 0.00 0.00 69 1025.5
20220930181029 61 0.0 0.0 0.00 0.00 0.00 69 1025.6
20220930180049 61 0.0 0.0 0.00 0.00 0.00 69 1025.6
20220930175029 61 0.0 0.0 0.00 0.00 0.00 70 1026.0
20220930174029 61 0.0 0.0 0.00 0.00 0.00 71 1026.1
20220930173017 61 0.0 0.0 0.00 0.00 0.00 72 1026.1
20220930172038 61 0.0 0.0 0.00 0.00 0.00 71 1026.2
20220930171049 60 0.0 0.0 0.00 0.00 0.00 72 1026.3
20220930170029 60 0.0 0.0 0.00 0.00 0.00 73 1026.3
20220930165029 60 0.0 0.0 0.00 0.00 0.00 73 1026.6
20220930164029 60 0.0 0.0 0.00 0.00 0.00 74 1026.7
20220930163018 59 0.0 0.0 0.00 0.00 0.00 74 1026.7
20220930162017 59 0.0 0.0 0.00 0.00 0.00 74 1026.8
20220930161037 59 0.0 0.0 0.00 0.00 0.00 75 1026.9
20220930160017 59 0.0 0.0 0.00 0.00 0.00 75 1026.9
20220930155057 58 0.0 0.0 0.00 0.00 0.00 76 1026.9
20220930154048 58 0.0 0.0 0.00 0.00 0.00 77 1027.0
20220930153018 58 0.0 0.0 0.00 0.00 0.00 78 1027.0
20220930152017 57 0.0 0.0 0.00 0.00 0.00 79 1027.0
20220930151029 57 0.0 0.0 0.00 0.00 0.00 79 1027.0
20220930150029 56 0.0 0.0 0.00 0.00 0.00 81 1026.9
20220930145029 55 0.0 0.0 0.00 0.00 0.00 83 1026.8
20220930144037 54 0.0 0.0 0.00 0.00 0.00 85 1026.7
20220930143108 53 0.0 0.0 0.00 0.00 0.00 88 1026.7
20220930142049 52 0.0 0.0 0.00 0.00 0.00 91 1026.8
20220930141017 51 0.0 0.0 0.00 0.00 0.00 92 1026.8
20220930140019 50 0.0 0.0 0.00 0.00 0.00 93 1026.8
20220930134049 48 0.0 0.0 0.00 0.00 0.00 93 1026.6
20220930133028 47 0.0 0.0 0.00 0.00 0.00 92 1026.6
20220930132049 47 0.0 0.0 0.00 0.00 0.00 92 1026.7
20220930131030 46 0.0 0.0 0.00 0.00 0.00 92 1026.8
20220930130017 45 0.0 0.0 0.00 0.00 0.00 92 1026.7
20220930125017 45 0.0 0.0 0.00 0.00 0.00 92 1026.7
20220930124039 44 0.0 0.0 0.00 0.00 0.00 91 1026.6
20220930123030 44 0.0 0.0 0.00 0.00 0.00 91 1026.6
20220930122110 44 0.0 0.0 0.00 0.00 0.00 91 1026.6
20220930121030 44 0.0 0.0 0.00 0.00 0.00 91 1026.8
20220930120030 44 0.0 0.0 0.00 0.00 0.00 91 1026.7
20220930115019 44 0.0 0.0 0.00 0.00 0.00 91 1026.7
20220930114039 44 0.0 0.0 0.00 0.00 0.00 91 1026.6
20220930113050 44 0.0 0.0 0.00 0.00 0.00 91 1026.6
20220930112050 44 0.0 0.0 0.00 0.00 0.00 90 1026.7
20220930111028 44 0.0 0.0 0.00 0.00 0.00 91 1026.6
20220930110030 44 0.0 0.0 0.00 0.00 0.00 91 1026.6
20220930105030 44 0.0 0.0 0.00 0.00 0.00 90 1026.6
20220930104051 44 0.0 0.0 0.00 0.00 0.00 90 1026.6
20220930103110 44 0.0 0.0 0.00 0.00 0.00 90 1026.7
20220930102019 44 0.0 0.0 0.00 0.00 0.00 90 1026.7
20220930101019 44 0.0 0.0 0.00 0.00 0.00 90 1026.6
20220930100019 44 0.0 0.0 0.00 0.00 0.00 90 1026.6
20220930095019 44 0.0 0.0 0.00 0.00 0.00 90 1026.5
20220930094110 44 0.0 0.0 0.00 0.00 0.00 89 1026.5
20220930093029 44 0.0 0.0 0.00 0.00 0.00 90 1026.5
20220930092110 45 0.0 0.0 0.00 0.00 0.00 89 1026.3
20220930091050 45 0.0 0.0 0.00 0.00 0.00 89 1026.4
20220930090019 45 0.0 0.0 0.00 0.00 0.00 89 1026.4
20220930085050 45 0.0 0.0 0.00 0.00 0.00 90 1026.5
20220930084050 45 0.0 0.0 0.00 0.00 0.00 90 1026.4
20220930083030 45 0.0 0.0 0.00 0.00 0.00 90 1026.4
20220930082030 45 0.0 0.0 0.00 0.00 0.00 90 1026.4
20220930081050 45 0.0 0.0 0.00 0.00 0.00 90 1026.4
20220930080018 45 0.0 0.0 0.00 0.00 0.00 89 1026.4
20220930075210 46 0.0 0.0 0.00 0.00 0.00 90 1026.5
20220930074050 46 0.0 0.0 0.00 0.00 0.00 90 1026.6
20220930073050 46 0.0 0.0 0.00 0.00 0.00 90 1026.7
20220930072050 46 0.0 0.0 0.00 0.00 0.00 89 1026.7
20220930071050 46 0.0 0.0 0.00 0.00 0.00 89 1026.7
20220930070018 46 0.0 0.0 0.00 0.00 0.00 89 1026.7
20220930065019 46 0.0 0.0 0.00 0.00 0.00 89 1026.7
20220930064030 46 0.0 0.0 0.00 0.00 0.00 89 1026.6
20220930063030 46 0.0 0.0 0.00 0.00 0.00 89 1026.6
20220930062030 46 0.0 0.0 0.00 0.00 0.00 89 1026.6
20220930061018 46 0.0 0.0 0.00 0.00 0.00 89 1026.7
20220930060029 46 0.0 0.0 0.00 0.00 0.00 88 1026.7
20220930055018 46 0.0 0.0 0.00 0.00 0.00 88 1026.6
20220930054018 46 0.0 0.0 0.00 0.00 0.00 88 1026.6
20220930053038 47 0.0 0.0 0.00 0.00 0.00 88 1026.6
20220930052018 47 0.0 0.0 0.00 0.00 0.00 88 1026.7
20220930051018 47 0.0 0.0 0.00 0.00 0.00 88 1026.8
20220930050029 47 0.0 0.0 0.00 0.00 0.00 87 1026.8
20220930045019 47 0.0 0.0 0.00 0.00 0.00 87 1027.1
20220930044030 48 0.0 0.0 0.00 0.00 0.00 87 1027.1
20220930043030 48 0.0 0.0 0.00 0.00 0.00 87 1027.2
20220930042150 48 0.0 0.0 0.00 0.00 0.00 87 1027.1
20220930041019 48 0.0 0.0 0.00 0.00 0.00 87 1027.1
20220930040030 48 0.0 0.0 0.00 0.00 0.00 87 1027.1
20220930035038 48 0.0 0.0 0.00 0.00 0.00 87 1027.1
20220930034030 49 0.0 0.0 0.00 0.00 0.00 87 1027.2
20220930033019 49 0.0 0.0 0.00 0.00 0.00 86 1027.2
20220930032018 49 0.0 0.0 0.00 0.00 0.00 86 1027.3
20220930031018 49 0.0 0.0 0.00 0.00 0.00 86 1027.5
20220930030038 49 0.0 0.0 0.00 0.00 0.00 85 1027.5
20220930025030 49 0.0 0.0 0.00 0.00 0.00 85 1027.6
20220930024030 49 0.0 0.0 0.00 0.00 0.00 85 1027.6
20220930023030 50 0.0 0.0 0.00 0.00 0.00 84 1027.6
20220930022030 50 0.0 0.0 0.00 0.00 0.00 84 1027.5
20220930021030 50 0.0 0.0 0.00 0.00 0.00 83 1027.5
20220930020110 50 0.0 0.0 0.00 0.00 0.00 83 1027.5
20220930015050 50 0.0 0.0 0.00 0.00 0.00 83 1027.4
20220930014050 51 0.0 0.0 0.00 0.00 0.00 82 1027.4
20220930013059 51 0.0 0.0 0.00 0.00 0.00 82 1027.4
20220930012050 51 0.0 0.0 0.00 0.00 0.00 81 1027.3
20220930011030 52 0.0 0.0 0.00 0.00 0.00 81 1027.4
20220930010050 52 0.0 0.0 0.00 0.00 0.00 80 1027.4
20220930005030 52 0.0 0.0 0.00 0.00 0.00 80 1027.4
20220930004019 52 0.0 0.0 0.00 0.00 0.00 79 1027.4
20220930003030 53 0.0 0.0 0.00 0.00 0.00 78 1027.4
20220930002058 53 0.0 0.0 0.00 0.00 0.00 77 1027.5
20220930001038 54 0.0 0.0 0.00 0.00 0.00 76 1027.5
20220930000050 54 0.0 0.0 0.00 0.00 0.00 75 1027.5
20220929235029 54 0.0 0.0 0.00 0.00 0.00 74 1027.5
20220929234030 55 0.0 0.0 0.00 0.00 0.00 73 1027.7
20220929233110 55 0.0 0.0 0.00 0.00 0.00 72 1027.7
20220929232049 56 0.0 0.0 0.00 0.00 0.00 71 1027.7
20220929231030 56 0.0 0.0 0.00 0.00 0.00 71 1027.9
20220929230050 56 0.0 0.0 0.00 0.00 0.00 70 1027.9
20220929225110 57 0.0 2.0 0.00 0.00 0.00 69 1028.0
20220929224019 57 0.0 0.0 0.00 0.00 0.00 67 1028.1